Location: Newark
(38.7000°N, 9.1833°W)
Time: 09:24:36
(UTC+00:00)

LightSail 2 - Visible Passes

Search period start: 16 October 2019 00:00
Search period end: 26 October 2019 00:00
Orbit: 707 x 723 km, 24.0° (Epoch: 14 October)

Date Brightness Start Highest point End Pass type
(mag) Time Alt. Az. Time Alt. Az. Time Alt. Az.
16 Oct 7.2 19:36:58 10° SW 19:39:51 15° S 19:41:26 13° SSE visible
17 Oct 7.4 18:39:32 10° SW 18:42:29 15° S 18:45:27 10° SE visible
17 Oct 7.7 20:25:43 10° SSW 20:26:27 11° SSW 20:26:27 11° SSW visible
18 Oct 7.5 19:27:35 10° SW 19:29:53 13° S 19:32:09 10° SSE visible
19 Oct 7.5 18:29:50 10° SW 18:32:31 14° S 18:35:12 10° SSE visible
21 Oct 7.7 18:20:41 10° SSW 18:22:29 12° SSW 18:24:17 10° S visible
